Flag for Canada Weather past 2 weeks in Norfolk, Ontario, Canada

Now
7 °F

Frigid.


Feels Like: -2 °F
Forecast: -4 / 19 °F
Wind: 5 mph from Northwest

Location: Delhi CS

Current Time: Mar 5, 2015 at 7:47:00 PM

Latest Report: Mar 5, 2015 at 7:00 PM


Visibility: N/A

Pressure: 30.47 "Hg

Humidity: 74%

Dew point: 0 °F

Location of NorfolkLocation

Historic Weather in Norfolk — Graph

°F

Norfolk temperature yesterday

Maximum temperature yesterday: 34 °F (at 12:00 AM)
Minimum temperature yesterday: 21 °F (at 11:00 PM)
Average temperature yesterday: 30 °F

Past Weeks' High & Low Weather Summary

 TemperatureHumidityPressure
High35 °F (Mar 3, 8:00 PM)100% (Mar 1, 6:00 AM)30.81 "Hg (Mar 1, 6:00 AM)
Low-17 °F (Feb 27, 7:00 AM)42% (Feb 20, 12:00 PM)29.60 "Hg (Mar 3, 7:00 PM)
Average8 °F77%30.22 "Hg
* Reported Feb 18 6:00 PM — Mar 5 6:00 PM, Norfolk, Weather by CustomWeather, © 2015

Note: Actual official high and low records may vary slightly from our data, if they occured in-between our weather recording intervals... More about our weather records

Advertising

Norfolk weather history for previous 24 hours

 ConditionsComfort  
Time TempWeatherWind HumidityBarometerVisibility
6:00 PM
Thu, Mar 5
9 °FFrigid.7 mph63%30.43 "HgN/A
5:00 PM11 °FCold.8 mph58%30.41 "HgN/A
4:00 PM10 °FCold.8 mph65%30.39 "HgN/A
3:00 PM11 °FCold.9 mph59%30.37 "HgN/A
2:00 PM11 °FCold.10 mph59%30.37 "HgN/A
1:00 PM10 °FFrigid.9 mph62%30.37 "HgN/A
12:00 PM9 °FFrigid.9 mph59%30.37 "HgN/A
11:00 AM7 °FFrigid.9 mph65%30.39 "HgN/A
10:00 AM8 °FFrigid.7 mph65%30.36 "HgN/A
9:00 AM5 °FFrigid.7 mph71%30.37 "HgN/A
8:00 AM4 °FFrigid.6 mph72%30.35 "HgN/A
7:00 AM4 °FFrigid.5 mph70%30.35 "HgN/A
6:00 AM5 °FFrigid.3 mph69%30.32 "HgN/A
5:00 AM5 °FFrigid.5 mph68%30.32 "HgN/A
4:00 AM7 °FFrigid.10 mph67%30.27 "HgN/A
3:00 AM9 °FFrigid.8 mph66%30.24 "HgN/A
2:00 AM11 °FCold.12 mph65%30.24 "HgN/A
1:00 AM15 °FCold.12 mph63%30.19 "HgN/A
12:00 AM16 °FCold.10 mph72%30.18 "HgN/A
11:00 PM
Wed, Mar 4
21 °FCold.13 mph67%30.11 "HgN/A
10:00 PM24 °FCold.10 mph72%30.04 "HgN/A
9:00 PM24 °FCold.9 mph78%30.03 "HgN/A
8:00 PM26 °FChilly.10 mph78%29.99 "HgN/A
7:00 PM28 °FChilly.8 mph75%29.96 "HgN/A
Weather by CustomWeather, © 2015

See weather overviewHow to use our weather pages